Tracking 28531 objects as of 27-Feb-2024
HD Live streaming from Space Station
objects crossing your sky now

STARLINK-4725

Track STARLINK-4725 now!
10-day predictions
STARLINK-4725 is classified as:


NORAD ID: 53700
Int'l Code: 2022-107A
Perigee: 546.0 km
Apogee: 547.8 km
Inclination: 53.2 °
Period: 95.4 minutes
Semi major axis: 6917 km
RCS: Unknown
Launch date: September 5, 2022
Source: United States (US)
Launch site: AIR FORCE EASTERN TEST RANGE (AFETR)
Your satellite tracking list
Your tracking list is empty




NASA's NSSDC Master Catalog

Two Line Element Set (TLE):
1 53700U 22107A   24057.76466343  .00001071  00000-0  85383-4 0  9994
2 53700  53.2207 334.3781 0001281 108.1018 252.0113 15.08838304 82101
Source of the keplerian elements: AFSPC